TimeCST,TemperatureF,Dew PointF,Humidity,Sea Level PressureIn,VisibilityMPH,Wind Direction,Wind SpeedMPH,Gust SpeedMPH,PrecipitationIn,Events,Conditions,WindDirDegrees,DateUTC
12:15 AM,25.3,15.6,67,30.07,10.0,WNW,21.9,26.5,N/A,,Overcast,290,2014-01-15 06:15:00
12:35 AM,24.8,14.9,66,30.07,10.0,WNW,18.4,27.6,N/A,,Overcast,290,2014-01-15 06:35:00
12:55 AM,24.4,15.4,69,30.08,10.0,WNW,20.7,26.5,N/A,,Overcast,290,2014-01-15 06:55:00
1:15 AM,23.9,15.4,70,30.08,10.0,WNW,18.4,26.5,N/A,,Overcast,290,2014-01-15 07:15:00
1:35 AM,23.5,14.9,70,30.09,10.0,WNW,19.6,29.9,N/A,,Overcast,300,2014-01-15 07:35:00
1:55 AM,23.5,15.1,70,30.09,10.0,West,19.6,23.0,N/A,,Overcast,280,2014-01-15 07:55:00
2:15 AM,23.0,14.0,68,30.10,10.0,WNW,16.1,19.6,N/A,,Overcast,290,2014-01-15 08:15:00
2:35 AM,22.6,13.5,68,30.10,10.0,WNW,17.3,26.5,N/A,,Overcast,290,2014-01-15 08:35:00
2:55 AM,22.6,13.6,68,30.10,10.0,WNW,16.1,23.0,N/A,,Overcast,290,2014-01-15 08:55:00
3:15 AM,22.6,14.2,70,30.10,10.0,NW,17.3,21.9,N/A,,Overcast,310,2014-01-15 09:15:00
3:35 AM,21.9,13.5,70,30.10,10.0,NW,18.4,23.0,N/A,,Mostly Cloudy,320,2014-01-15 09:35:00
3:55 AM,20.8,13.1,72,30.11,10.0,WNW,19.6,25.3,N/A,,Scattered Clouds,300,2014-01-15 09:55:00
4:15 AM,20.3,13.1,74,30.11,10.0,NW,16.1,21.9,N/A,,Scattered Clouds,310,2014-01-15 10:15:00
4:35 AM,20.7,13.1,73,30.11,10.0,NW,16.1,23.0,N/A,,Overcast,310,2014-01-15 10:35:00
4:55 AM,20.7,13.3,73,30.12,10.0,NW,12.7,18.4,N/A,,Overcast,320,2014-01-15 10:55:00
5:15 AM,20.3,12.9,73,30.12,10.0,NW,16.1,21.9,N/A,,Overcast,310,2014-01-15 11:15:00
5:35 AM,20.1,12.2,71,30.13,10.0,NW,15.0,-,N/A,,Overcast,310,2014-01-15 11:35:00
5:55 AM,20.3,13.1,74,30.13,10.0,WNW,16.1,-,N/A,,Overcast,300,2014-01-15 11:55:00
6:15 AM,19.4,12.6,75,30.13,10.0,WNW,12.7,18.4,N/A,Snow,Light Snow,290,2014-01-15 12:15:00
6:35 AM,19.0,12.2,75,30.14,10.0,WNW,15.0,19.6,N/A,Snow,Light Snow,290,2014-01-15 12:35:00
6:55 AM,18.5,11.3,73,30.15,10.0,WNW,16.1,20.7,N/A,Snow,Light Snow,290,2014-01-15 12:55:00
7:15 AM,18.1,11.1,74,30.15,10.0,WNW,11.5,18.4,N/A,Snow,Light Snow,290,2014-01-15 13:15:00
7:35 AM,18.0,10.9,74,30.16,10.0,NW,12.7,16.1,N/A,Snow,Light Snow,310,2014-01-15 13:35:00
7:55 AM,18.0,10.9,74,30.17,10.0,NW,8.1,-,N/A,Snow,Light Snow,310,2014-01-15 13:55:00
8:15 AM,18.0,11.1,75,30.18,7.0,WNW,13.8,17.3,N/A,Snow,Light Snow,290,2014-01-15 14:15:00
8:35 AM,18.0,10.9,74,30.18,10.0,NW,13.8,18.4,N/A,Snow,Light Snow,310,2014-01-15 14:35:00
8:55 AM,18.5,11.3,73,30.19,10.0,WNW,11.5,-,N/A,Snow,Light Snow,300,2014-01-15 14:55:00
9:15 AM,18.3,11.3,74,30.19,10.0,WNW,9.2,-,N/A,Snow,Light Snow,290,2014-01-15 15:15:00
9:35 AM,17.8,11.7,77,30.19,4.0,WNW,9.2,-,N/A,Snow,Light Snow,290,2014-01-15 15:35:00
9:55 AM,18.1,11.3,75,30.20,5.0,West,11.5,17.3,N/A,Snow,Light Snow,280,2014-01-15 15:55:00
10:15 AM,19.4,11.3,71,30.20,7.0,West,12.7,17.3,N/A,Snow,Light Snow,280,2014-01-15 16:15:00
10:35 AM,19.4,10.8,69,30.20,10.0,NW,10.4,16.1,N/A,,Mostly Cloudy,310,2014-01-15 16:35:00
10:55 AM,19.9,11.7,70,30.20,10.0,West,13.8,-,N/A,,Scattered Clouds,280,2014-01-15 16:55:00
11:15 AM,20.7,10.8,66,30.19,10.0,West,9.2,-,N/A,,Scattered Clouds,280,2014-01-15 17:15:00
11:35 AM,21.0,10.8,65,30.18,10.0,WNW,12.7,-,N/A,,Scattered Clouds,300,2014-01-15 17:35:00
11:55 AM,21.4,10.8,64,30.17,10.0,West,13.8,18.4,N/A,,Scattered Clouds,280,2014-01-15 17:55:00
12:15 PM,21.2,10.9,65,30.16,10.0,WNW,10.4,-,N/A,,Scattered Clouds,300,2014-01-15 18:15:00
12:35 PM,22.6,11.1,61,30.15,10.0,WNW,11.5,-,N/A,,Clear,290,2014-01-15 18:35:00
12:55 PM,23.4,12.4,63,30.14,10.0,West,12.7,16.1,N/A,,Clear,280,2014-01-15 18:55:00
1:15 PM,23.4,11.7,61,30.15,10.0,WNW,11.5,-,N/A,,Clear,290,2014-01-15 19:15:00
1:35 PM,23.5,12.7,63,30.14,10.0,West,10.4,-,N/A,,Clear,270,2014-01-15 19:35:00
1:55 PM,24.4,12.9,62,30.13,10.0,West,8.1,-,N/A,,Clear,280,2014-01-15 19:55:00
2:15 PM,24.6,12.7,61,30.13,10.0,WSW,8.1,-,N/A,,Scattered Clouds,250,2014-01-15 20:15:00
2:35 PM,25.3,12.9,59,30.12,10.0,WSW,9.2,-,N/A,,Scattered Clouds,250,2014-01-15 20:35:00
2:55 PM,25.0,12.6,59,30.12,10.0,WSW,6.9,-,N/A,,Scattered Clouds,240,2014-01-15 20:55:00
3:15 PM,25.5,13.1,59,30.12,10.0,WSW,9.2,-,N/A,,Clear,240,2014-01-15 21:15:00
3:35 PM,25.5,12.9,59,30.12,10.0,WSW,10.4,-,N/A,,Clear,240,2014-01-15 21:35:00
3:55 PM,25.2,12.6,59,30.12,10.0,WSW,10.4,-,N/A,,Clear,250,2014-01-15 21:55:00
4:15 PM,24.6,12.7,61,30.12,10.0,WSW,12.7,-,N/A,,Clear,240,2014-01-15 22:15:00
4:35 PM,23.9,13.1,63,30.12,10.0,WSW,11.5,-,N/A,,Clear,240,2014-01-15 22:35:00
4:55 PM,23.5,13.1,64,30.11,10.0,WSW,6.9,-,N/A,,Clear,240,2014-01-15 22:55:00
5:15 PM,23.0,13.3,66,30.10,10.0,SW,4.6,-,N/A,,Clear,220,2014-01-15 23:15:00
5:35 PM,22.1,13.8,70,30.09,10.0,South,3.5,-,N/A,,Clear,190,2014-01-15 23:35:00
5:55 PM,22.5,14.0,70,30.09,10.0,SSW,4.6,-,N/A,,Clear,210,2014-01-15 23:55:00
6:15 PM,22.1,14.7,73,30.08,10.0,SSW,4.6,-,N/A,,Clear,200,2014-01-16 00:15:00
6:35 PM,22.1,14.5,73,30.08,10.0,South,6.9,-,N/A,,Clear,190,2014-01-16 00:35:00
6:55 PM,23.0,14.2,69,30.07,10.0,SSW,8.1,-,N/A,,Clear,200,2014-01-16 00:55:00
7:15 PM,22.6,14.0,69,30.06,10.0,SSW,8.1,-,N/A,,Clear,200,2014-01-16 01:15:00
7:35 PM,22.1,14.0,71,30.05,10.0,South,5.8,-,N/A,,Clear,190,2014-01-16 01:35:00
7:55 PM,21.7,14.0,72,30.04,10.0,South,5.8,-,N/A,,Clear,170,2014-01-16 01:55:00
8:15 PM,21.4,14.7,75,30.03,10.0,South,5.8,-,N/A,,Scattered Clouds,170,2014-01-16 02:15:00
8:35 PM,21.6,14.5,74,30.02,10.0,South,6.9,-,N/A,,Mostly Cloudy,170,2014-01-16 02:35:00
8:55 PM,21.9,14.5,73,30.02,10.0,South,8.1,-,N/A,,Scattered Clouds,180,2014-01-16 02:55:00
9:15 PM,22.5,14.9,73,29.99,10.0,South,8.1,-,N/A,,Mostly Cloudy,180,2014-01-16 03:15:00
9:35 PM,23.0,14.9,71,29.99,10.0,South,10.4,-,N/A,,Overcast,190,2014-01-16 03:35:00
9:55 PM,23.7,15.3,70,29.98,10.0,South,11.5,-,N/A,,Overcast,180,2014-01-16 03:55:00
10:15 PM,23.9,15.8,71,29.97,10.0,South,13.8,-,N/A,,Overcast,180,2014-01-16 04:15:00
10:35 PM,24.6,16.0,70,29.94,10.0,South,15.0,19.6,N/A,,Overcast,180,2014-01-16 04:35:00
10:55 PM,24.8,16.2,70,29.93,10.0,South,15.0,19.6,N/A,,Overcast,180,2014-01-16 04:55:00
11:15 PM,25.5,16.5,69,29.93,10.0,South,13.8,18.4,N/A,,Overcast,190,2014-01-16 05:15:00
11:35 PM,26.1,16.5,67,29.93,10.0,South,13.8,17.3,N/A,,Overcast,190,2014-01-16 05:35:00
11:55 PM,26.6,16.0,64,29.93,10.0,SSW,12.7,-,N/A,,Overcast,200,2014-01-16 05:55:00